TimeMST,TemperatureF,Dew PointF,Humidity,Sea Level PressureIn,VisibilityMPH,Wind Direction,Wind SpeedMPH,Gust SpeedMPH,PrecipitationIn,Events,Conditions,WindDirDegrees,DateUTC
12:53 AM,19.9,6.1,55,29.90,10.0,East,5.8,-,N/A,,Clear,80,2013-02-26 07:53:00
1:53 AM,14.0,7.0,74,29.91,10.0,Calm,Calm,-,N/A,,Clear,0,2013-02-26 08:53:00
2:53 AM,23.0,7.0,50,29.86,10.0,Calm,Calm,-,N/A,,Clear,0,2013-02-26 09:53:00
3:53 AM,21.0,7.0,55,29.86,10.0,SSW,3.5,-,N/A,,Clear,200,2013-02-26 10:53:00
4:53 AM,21.0,6.1,53,29.86,10.0,Calm,Calm,-,N/A,,Clear,0,2013-02-26 11:53:00
5:53 AM,21.9,5.0,48,29.85,10.0,South,4.6,-,N/A,,Clear,190,2013-02-26 12:53:00
6:53 AM,16.0,6.1,65,29.91,10.0,ENE,3.5,-,N/A,,Clear,70,2013-02-26 13:53:00
7:53 AM,26.1,8.1,47,29.89,10.0,Calm,Calm,-,N/A,,Clear,0,2013-02-26 14:53:00
8:53 AM,30.9,6.1,35,29.90,10.0,WNW,16.1,26.5,N/A,,Clear,300,2013-02-26 15:53:00
9:53 AM,33.1,6.1,32,29.92,10.0,NW,17.3,25.3,N/A,,Clear,310,2013-02-26 16:53:00
10:53 AM,34.0,1.9,26,29.93,10.0,NNW,19.6,26.5,N/A,,Clear,340,2013-02-26 17:53:00
11:53 AM,34.0,-0.9,23,29.94,10.0,NNW,15.0,24.2,N/A,,Mostly Cloudy,330,2013-02-26 18:53:00
12:53 PM,33.1,-4.0,20,29.94,10.0,NNW,18.4,26.5,N/A,,Mostly Cloudy,330,2013-02-26 19:53:00
1:53 PM,35.1,-5.1,18,29.97,10.0,NW,19.6,28.8,N/A,,Mostly Cloudy,320,2013-02-26 20:53:00
2:53 PM,33.1,-8.0,17,29.96,10.0,NW,13.8,21.9,N/A,,Mostly Cloudy,320,2013-02-26 21:53:00
3:53 PM,33.1,-8.0,17,29.97,10.0,NNW,17.3,26.5,N/A,,Clear,340,2013-02-26 22:53:00
4:53 PM,32.0,-14.1,13,29.98,10.0,WNW,20.7,26.5,N/A,,Clear,300,2013-02-26 23:53:00
5:53 PM,28.9,-9.9,18,30.02,10.0,NNW,17.3,25.3,N/A,,Clear,330,2013-02-27 00:53:00
6:53 PM,26.1,-6.0,25,30.09,10.0,NNW,8.1,-,N/A,,Clear,340,2013-02-27 01:53:00
7:53 PM,23.0,-2.9,32,30.08,10.0,NNW,5.8,-,N/A,,Clear,340,2013-02-27 02:53:00
8:53 PM,21.9,-0.9,37,30.09,10.0,Calm,Calm,-,N/A,,Clear,0,2013-02-27 03:53:00
9:53 PM,17.1,-0.0,47,30.13,10.0,Calm,Calm,-,N/A,,Clear,0,2013-02-27 04:53:00
10:53 PM,16.0,1.9,54,30.14,10.0,Calm,Calm,-,N/A,,Clear,0,2013-02-27 05:53:00
11:53 PM,18.0,3.0,52,30.12,10.0,North,4.6,-,N/A,,Clear,360,2013-02-27 06:53:00